NWS Regional Weather Roundup - New England Area

286
ASUS41 KBOX 250210
RWRBOX

REGIONAL WEATHER ROUNDUP
NATIONAL WEATHER SERVICE BOSTON/NORTON MA
1000 PM EDT SAT AUG 24 2019

NOTE:  "FAIR" INDICATES FEW OR NO CLOUDS BELOW 12,000 FEET WITH NO
SIGNIFICANT WEATHER AND/OR OBSTRUCTIONS TO VISIBILITY.

MAZALL-250300-
EASTERN MASSACHUSETTS

CITY           SKY/WX    TMP DP  RH WIND       PRES   REMARKS
BOSTON         FAIR      66  58  75 E5        30.28R
BEVERLY        FAIR      57  54  89 CALM      30.28R
LAWRENCE       FAIR      61  56  83 CALM      30.31R
BEDFORD        FAIR      61  54  77 CALM      30.28R
BLUE HILL        N/A     60  56  86 E9        30.28R
NORWOOD        FAIR      60  54  80 CALM      30.28R
MARSHFIELD     FAIR      68  57  68 NE8       30.27S
PLYMOUTH       FAIR      63  56  78 NE7       30.27R
TAUNTON        FAIR      57  54  89 CALM      30.27R
NEW BEDFORD    FAIR      59  55  87 CALM      30.26R
$$

MAZALL-250300-
CAPE COD AND THE ISLANDS

CITY           SKY/WX    TMP DP  RH WIND       PRES   REMARKS
FALMOUTH       CLEAR     63  55  77 NE10      30.26R
HYANNIS        FAIR      63  56  78 NE3       30.24S
CHATHAM        FAIR      67  58  72 NE8       30.26R
PROVINCETOWN   FAIR      64  58  80 NE9       30.27S
NANTUCKET      FAIR      62  58  86 NE10      30.23S
MARTHAS VNYRD  MOCLDY    66  56  70 NE13      30.24S
$$

MAZALL-250300-
CENTRAL AND WESTERN MASSACHUSETTS

CITY           SKY/WX    TMP DP  RH WIND       PRES   REMARKS
WORCESTER      FAIR      60  54  80 E3        30.31R
FITCHBURG      MOCLDY    64  54  69 CALM      30.31R
ORANGE         MOCLDY    65  57  75 CALM      30.30R
SPRINGFIELD    MOCLDY    65  56  72 CALM      30.27R
WESTFIELD      CLOUDY    68  55  63 E8        30.26R
NORTH ADAMS    CLOUDY    63  60  90 CALM      30.28R
PITTSFIELD     CLOUDY    63  57  81 CALM      30.28R
$$

RIZALL-250300-
RHODE ISLAND

CITY           SKY/WX    TMP DP  RH WIND       PRES   REMARKS
PROVIDENCE     FAIR      62  56  80 NE7       30.28R
NEWPORT        FAIR      63  57  81 NE7       30.26R
BLOCK ISLAND   FAIR     N/A N/A N/A NE10G18   30.26R
SMITHFIELD     FAIR      56  54  93 CALM      30.29R
WESTERLY       FAIR      63  58  83 N3        30.26R
$$

CTZALL-250300-
CONNECTICUT

CITY           SKY/WX    TMP DP  RH WIND       PRES   REMARKS
BRADLEY INTL   MOCLDY    68  56  65 E9        30.26R
HARTFORD       CLOUDY    68  56  65 CALM      30.25R
BRIDGEPORT     MOCLDY    69  55  60 SE7       30.24R
DANBURY        FAIR      59  55  87 SW5       30.26R
GROTON         FAIR      65  55  70 NE7       30.25R
NEW HAVEN      CLOUDY    70  59  68 VRB3      30.25R
CHESTER        FAIR      63  59  88 CALM      30.26S
MERIDEN        CLOUDY    66  55  67 CALM      30.25R
WILLIMANTIC    MOCLDY    64  56  75 N5        30.28R
OXFORD         CLOUDY    62  55  77 CALM      30.27R
$$

MEZ002-015-021-024-NHZ003-005-008-011-012-014-VTZ005-008-250300-
NORTHERN NEW ENGLAND

CITY           SKY/WX    TMP DP  RH WIND       PRES   REMARKS
PORTLAND ME    CLOUDY    66  56  70 NE5       30.30R
BANGOR ME      MOCLDY    58  55  90 CALM      30.32R
CONCORD NH     CLOUDY    62  56  80 CALM      30.30R
MANCHESTER NH  FAIR      64  56  75 NE3       30.29R
NASHUA NH      FAIR      60  58  92 CALM      30.31R
PORTSMOUTH NH  MOCLDY    63  56  78 NW3       30.28R
JAFFREY NH     CLOUDY    62  54  74 CALM      30.32R
KEENE NH       CLOUDY    65  57  75 CALM      30.30R
BURLINGTON VT  FAIR      60  55  83 CALM      30.32R
MT. WASHINGTON FOG       41  41 100 NE12        N/A  VSB 1/16
$$

NYZ052-076-250300-
EASTERN NEW YORK

CITY           SKY/WX    TMP DP  RH WIND       PRES   REMARKS
ALBANY         MOCLDY    66  53  63 N8        30.28R
NEW YORK CITY  MOCLDY    71  52  50 SE8       30.22R
$$

ANZALL-250300-
MARINE OBSERVATIONS

STATION/POSITION TIME  TEMP    WIND        PRES    VSBY  WAVE
                       AIR SEA DIR/SP/G                  HT/PER
                 (UTC) (F)     (DEG/KT/KT) (MB)    (MI)  (FT/S)
BOSTON BUOY      0150   66 67              1024.2R         2/ 4
BUZZARDS BAY     0100   66      50/ 19/ 20 1024.5R
NANTUCKET SOUND  0110   67      60/ 19/ 23   N/A
MASS BAY-STELLWA 0104   67 67   70/ 10/ 12 1024.6R  1 7/8  2/ 5
ISLE OF SHOALS   0100   65      90/ 11/ 11 1024.7R
S OF BLOCK IS    0200      76                N/A           3/ 4
$$

......................KEY.........................
  SKY/WX - SKY CONDITION/PRESENT WEATHER
  TMP    - TEMPERATURE IN FAHRENHEIT
  DWPT   - DEWPOINT IN FAHRENHEIT
  RH     - RELATIVE HUMIDITY IN PERCENT
  WIND   - DIRECTION AND SPEED IN MPH
  PRES   - MEAN SEA LEVEL PRESSURE IN INCHES OF HG
  WCI    - WIND CHILL INDEX
  VSB    - VISIBILITY IN MILES
  HX     - HEAT INDEX
  TC     - TEMPERATURE IN CELSIUS
  VRB    - VARIABLE WIND DIRECTION
  N/A    - NOT AVAILABLE

NWS BOX Regional Weather Roundup - New England Area